Find Starlink 32147

NORAD ID: 60152 Int'l Des: 2024-120 Owner: SPXS Country: US Constellation: starlink operational
LEOCIRCULAR

現在のビュー

3D地球を読み込み中...

About Starlink 32147

Starlink 32147 (NORAD 60152) is a starlink constellation satellite (v2 mini) launched Jun 27, 2024 by SPXS of US. It operates in LEO, CIRCULAR orbit with a mass of 730.00 kg.

次回通過

Passes for default location (London). Set your location on the main map for personalized predictions.

高度履歴

Loading altitude history...

軌道要素

1 60152U 24120T 26263.92157959 .00000009 00000-0 11407-4 0 9995
2 60152 53.1597 129.7910 0001236 87.4318 272.6826 15.34389134126315
Epoch: Sep 20, 2026 • Age: 12 hours

現在のステータス

高度 475.9 km
遠地点 / 近地点 N/A
速度 7.63 km/s
衛星直下点 -38.38°S, 65.13°W
打ち上げ日 Jun 27, 2024
運用期間 2.2 years
タイプ internet

技術仕様

分類 Payload
質量 730.00 kg
乾燥質量 700.00 kg
長さ 0.30 m
スパン 29.00 m
形状 ? Box + pan
製造者 SPXS
バスタイプ Starlink V2M
フェーズステータス In Orbit
所有者/国 SPXS/US

Most Searched